Weather History for KUKI - May, 2012

Change the Weather History Date:

Monday, May 21, 2012

  Actual Average Record
Temperature  
Mean Temperature 66 °F 63 °F  
Max Temperature 79 °F 78 °F 99 °F (2001)
Min Temperature 52 °F 47 °F 33 °F (1922)
Degree Days  
Heating Degree Days 0 4  
Month to date heating degree days 58 107  
Since 1 July heating degree days 3088 3053  
Cooling Degree Days 1 2  
Month to date cooling degree days 33 28  
Year to date cooling degree days 47 36  
Growing Degree Days 16 (Base 50)    
Moisture  
Dew Point 50 °F    
Average Humidity 57    
Maximum Humidity 83    
Minimum Humidity 31    
Precipitation  
Precipitation 0.00 in 0.03 in 0.68 in (1996)
Month to date precipitation 0.23 1.16  
Year to date precipitation 18.87 22.78  
Since 1 July precipitation 25.59  
Snow  
Snow 0.00 in - - ()
Month to date snowfall 0.0  
Since 1 July snowfall 0.0  
Snow Depth 0.00 in    
Sea Level Pressure  
Sea Level Pressure 30.03 in    
Wind  
Wind Speed 6 mph (NNW)    
Max Wind Speed 18 mph    
Max Gust Speed 24 mph    
Visibility 10 miles    
Events      
T = Trace of Precipitation, MM = Missing Value Source: NWS Daily Summary

Daily Weather History Graph

Daily Weather History Graph

Search for Another Location

Airport or City:

Trip Planner

Search our weather history database for the weather conditions in past years. The results will help you decide how hot, cold, wet, or windy it might be!

Date:

Astronomy

May. 21, 2012 Rise Set
Actual Time 5:54 AM PDT 8:24 PM PDT
Civil Twilight 5:23 AM PDT 8:55 PM PDT
Nautical Twilight 4:45 AM PDT 9:33 PM PDT
Astronomical Twilight 4:03 AM PDT 10:16 PM PDT
Moon 6:21 AM PDT (5/21) 9:19 PM PDT (5/21)
Length of Visible Light 15h 31m
Length of Day
14h 30m
New Moon, 1% of the Moon is Illuminated
May 21
New Moon
May 28
First Quarter
Jun 4
Full
Jun 11
Last Quarter
Jun 19
New

Hourly Weather History & Observations

Time (PDT) Temp. Dew Point Humidity Pressure Visibility Wind Dir Wind Speed Gust Speed Precip Events Conditions
12:56 AM 59.0 °F 48.0 °F 67% 29.99 in 10.0 mi Calm Calm - N/A   Clear
1:56 AM 57.0 °F 48.0 °F 72% 29.99 in 10.0 mi Calm Calm - N/A   Clear
2:56 AM 55.0 °F 48.0 °F 77% 30.00 in 10.0 mi Calm Calm - N/A   Clear
3:56 AM 55.0 °F 48.0 °F 77% 29.98 in 10.0 mi Calm Calm - N/A   Clear
4:56 AM 54.0 °F 48.0 °F 80% 30.00 in 10.0 mi East 3.5 mph - N/A   Clear
5:56 AM 54.0 °F 48.0 °F 80% 30.00 in 10.0 mi Calm Calm - N/A   Clear
6:56 AM 54.0 °F 48.0 °F 80% 30.02 in 10.0 mi NW 3.5 mph - N/A   Clear
7:56 AM 57.0 °F 48.0 °F 72% 30.04 in 10.0 mi North 3.5 mph - N/A   Clear
8:56 AM 63.0 °F 48.9 °F 60% 30.03 in 10.0 mi Variable 4.6 mph - N/A   Clear
9:56 AM 66.9 °F 50.0 °F 54% 30.04 in 10.0 mi North 11.5 mph - N/A   Clear
10:56 AM 68.0 °F 50.0 °F 52% 30.03 in 10.0 mi NE 6.9 mph - N/A   Clear
11:56 AM 75.0 °F 48.0 °F 38% 30.03 in 10.0 mi NNW 11.5 mph - N/A   Clear
12:56 PM 75.9 °F 46.9 °F 36% 30.03 in 10.0 mi North 9.2 mph - N/A   Clear
1:56 PM 77.0 °F 45.0 °F 32% 30.02 in 10.0 mi NNW 12.7 mph 18.4 mph N/A   Clear
2:56 PM 77.0 °F 50.0 °F 39% 30.03 in 10.0 mi NNW 12.7 mph - N/A   Clear
3:56 PM 77.0 °F 51.1 °F 40% 30.03 in 10.0 mi Variable 6.9 mph 17.3 mph N/A   Clear
4:56 PM 75.9 °F 52.0 °F 43% 30.02 in 10.0 mi NNW 15.0 mph 20.7 mph N/A   Clear
5:56 PM 72.0 °F 52.0 °F 49% 30.05 in 10.0 mi WNW 8.1 mph - N/A   Mostly Cloudy
6:56 PM 68.0 °F 54.0 °F 61% 30.05 in 10.0 mi North 11.5 mph - N/A   Mostly Cloudy
7:23 PM 66.2 °F 53.6 °F 64% 30.07 in 10.0 mi NNW 11.5 mph - N/A   Mostly Cloudy
7:56 PM 64.9 °F 55.0 °F 70% 30.06 in 10.0 mi North 9.2 mph - N/A   Mostly Cloudy
9:56 PM 62.1 °F 55.0 °F 78% 30.10 in 10.0 mi North 6.9 mph - N/A   Overcast
10:56 PM 62.1 °F 55.0 °F 78% 30.10 in 10.0 mi Calm Calm - N/A   Overcast
11:56 PM 60.1 °F 51.1 °F 72% 30.09 in 10.0 mi NW 3.5 mph - N/A   Clear